Location: Poughquag
(41.6090°N, 73.6820°W)
Time: 11:49:24
(UTC-04:00)

Transit 2A - Pass Details

Date: 05 June 2020
Orbit: 592 x 967 km, 66.7° (Epoch: 06 July)

Event Time Altitude Azimuth Distance (km) Brightness Sun altitude
Rises 20:34:25 0° 335° (NNW) 3,546 10.6 -2.2°
Reaches altitude 10° 20:37:10 10° 345° (NNW) 2,642 9.6 -2.6°
Maximum altitude 20:42:47 34° 49° (NE) 1,525 7.5 -3.5°
Drops below altitude 10° 20:48:31 10° 113° (ESE) 2,701 8.2 -4.4°
Enters shadow 20:49:53 - 118° (ESE) 3,145 8.5 -4.6°
Sets 20:51:20 0° 122° (ESE) 3,636 - -4.8°
